BREEZE-M DEB, 48535

Orbit data source: Space-Track

BREEZE-M DEB, 48535 is space debris in HEO originally from a launch on Fri, 14 Mar 2008 UTC launched from the Tyuratam Missile And Space Complex (TTMTR). Debris objects in space refer to the collection of defunct objects orbiting the Earth. Examples of debris include non-operational satellites, rocket bodies, and fragments generated from explosions, collisions, or faulty payload assembly.

Loading next visibility...
Identifier
48535, 2008-011EA
Orbit
HEO
Country
Flag of CISCIS
Related business
Manufacturer
Unknown
Mission
Spacecraft
Bus & Motor
Unknown
Mass
Unknown
Launch date (UTC)
2008-03-14 (18 years ago)
Launch vehicle
Unknown
Launch site
Tyuratam Missile And Space Complex (TTMTR)
Object type
Payload
Rocket body
Debris
Shape & HBR
Unknown shape, 0.4 m
Radar Cross Section
Medium (>0.1 m² and <1 m²)

Expand to show TLE details & history
Last TLE update: 3 days ago

TLE from 3 days ago
0 BREEZE-M DEB
1 48535U 08011EA  26170.51520187 -.00002228  00000-0 -55999-1 0  9994
2 48535  50.4529  92.7419 6400220  46.5145 351.3407  3.08420352 50143
Epoch: 2026-06-19T12:21Z
TLE epoch observation values (Epoch: 2026-06-19T12:21:53.441Z)
Latitude
0.00029°
Longitude
-0.45019°
Altitude
1,782.245 km
Speed
8.815 km/s
True Right ascension
06h 11m 03s
True Declination
0° 00' 01"
Sunlit
Object was in daylight at epoch
Visualization orbit readout
Latitude
Unknown
Longitude
Unknown
Altitude
Unknown
Speed
Unknown
Apparent Right ascension
Unknown
Apparent Declination
Unknown
Sunlit
N/A
Visualization observer readout
Local Sidereal Time
21:25:29
Azimuth
Unknown
Elevation
Unknown
Doppler factor
Unknown
Orbital elements
Apogee altitude
26,318.36 km
Perigee altitude
798.608 km
Semi-major axis
19,936.621 km
Eccentricity
0.64002
Inclination
50.4529°
RAAN
92.7419°
Arg. of periapsis
46.5145°
True anomaly
313.10961°
Mean anomaly
351.3407°
Eccentric anomaly
337.03011°
Mean motion
0.77102 °/min
Orbital period
466.91 mins
BSTAR
-0.055999
Loading maneuver chart data...
Computing Atmospheric mass density...
Loading historical data...
Loading historical data...
Loading historical data...
Loading historical data...
Loading historical data...
Loading historical data...
Loading historical data...

Documentation

Showing up to 5 results
|